Roanoke Regional Airport Airport (ROA)

 

Airport Diagram
Current Weather/Forecast (VFR Conditions)
METAR KROA 121754Z 14007KT 10SM FEW030 FEW080 BKN100 28/22 A3008 RMK AO2 LTG DSNT SW AND W SLP171 60001 T02830222 10289 20250 58005
TAF KROA 121727Z 1218/1318 11005KT P6SM VCTS SCT030CB BKN090 TEMPO 1219/1221 3SM TSRA OVC030CB FM130200 00000KT P6SM VCSH OVC040 FM130700 00000KT P6SM BKN025 FM131300 VRB03KT P6SM OVC035

All Charts
General
Chart Name Download
AIRPORT DIAGRAM
TAKEOFF MINIMUMS
ALTERNATE MINIMUMS
HOT SPOT

Departures
Chart Name Download
BUFIY THREE (RNAV)
DIXXY EIGHT
HOKEE THREE
MONAT THREE (RNAV)
SCUTA THREE (RNAV)

Approaches
Chart Name Download
ILS OR LOC RWY 34
RNAV (RNP) Z RWY 06
RNAV (RNP) Z RWY 24
RNAV (RNP) Z RWY 34
RNAV (GPS) Y RWY 06
RNAV (GPS) Y RWY 24
RNAV (GPS) Y RWY 34
LDA Y RWY 06
LDA Z RWY 06
VOR/DME-A


Inbound Traffic (Arrivals)

No inbound traffic.


Outbound Traffic (Departures)

No outbound traffic.